Espaço - Ciências - Fenômenos Naturais
Meteógrafos Informações Meteorológicas em tempo real

Aeroporto de Uberaba

Histórico do Tempo
Temperatura atual: 12 graus 53 F    Umidade relativa: 71 %
Velocidade do vento: 06 nós 10 Km/h    Direção: 050 graus NE
Ajuste do altímetro ..: 1019 HPA
Visibilidade: Ótima    Tempo presente: Céu Limpo

Observação

Data Hora BRTTempo°CUmidadePressãoVentoVisib.
26/05 - 07:56   Céu Limpo 12° 71% 1019 Nordeste/10 km/h OK
26/05 - 06:56   Céu Limpo 12° 71% 1019 Nordeste/10 km/h OK
26/05 - 05:56   Céu Limpo 13° 71% 1018 Este-nordeste/9 km/h OK
26/05 - 04:56   Céu Limpo 13° 71% 1018 Este-sudeste/9 km/h OK
26/05 - 03:56   Céu Limpo 14° 67% 1019 Leste/9 km/h OK
26/05 - 02:56   Céu Limpo 14° 67% 1019 Leste/7 km/h OK
26/05 - 01:56   Céu Limpo 14° 71% 1019 Leste/5 km/h OK
26/05 - 00:56   Céu Limpo 15° 63% 1019 Sudeste/7 km/h OK
25/05 - 23:56   Céu Limpo 15° 63% 1019 Sul-sudeste/9 km/h OK
25/05 - 22:56   Céu Limpo ND° ND% 1020 Sul-sudeste/10 km/h OK
25/05 - 21:56   Céu Limpo 16° 59% 1020 Sul-sudeste/5 km/h OK
25/05 - 20:56   Céu Limpo 16° 59% 1019 Sul/7 km/h OK
25/05 - 19:56   Céu Limpo 16° 63% 1019 Sul/10 km/h OK
25/05 - 18:56   Céu Limpo 17° 63% 1018 Sul/9 km/h OK
25/05 - 17:56   Céu Limpo 19° 56% 1018 Sul/9 km/h OK
25/05 - 16:56   Céu Limpo 20° 52% 1018 Sul/9 km/h OK
25/05 - 15:56   Céu Limpo 20° 52% 1017 Sul-sudoeste/9 km/h OK
25/05 - 14:56   Céu Limpo 20° 56% 1018 Oeste-sudoeste/12 km/h OK
25/05 - 13:56   Céu Limpo 20° 56% 1019 Sul/9 km/h OK
25/05 - 12:56   Poucas nuvens esparsas 18° 63% 1020 Oeste-sudoeste/7 km/h OK
25/05 - 11:56   Parcialmente Nublado 18° 63% 1021 Sul/10 km/h OK
25/05 - 10:56   Parcialmente Nublado 16° 77% 1021 Sul/10 km/h OK
25/05 - 09:56   Parcialmente Nublado 15° 82% 1020 Sul-sudoeste/12 km/h OK
25/05 - 08:56   Parcialmente Nublado 15° 87% 1020 Sul-sudoeste/14 km/h OK


Apolo11.com - Todos os direitos reservados - 2000 - 2019
Política de Privacidade   |     Termo de Uso e Licenciamento   |  -   Entre em Contato

"Deixe que me odeiem, de maneira que me temam!" - Calígula